Location: Milton Keynes
(52.0316°N, 0.7531°W)
Time: 23:06:08
(UTC+00:00)

ISS - Pass Details

Date: 27 January 2019
Orbit: 403 x 411 km, 51.6° (Epoch: 20 February)

Event Time Altitude Azimuth Distance (km) Brightness Sun altitude
Rises 18:55:35 0° 250° (WSW) 2,333 1.4 -20.5°
Reaches altitude 10° 18:57:41 10° 247° (WSW) 1,475 0.0 -20.8°
Enters shadow 19:00:30 56° 211° (SSW) 496 -3.3 -21.2°
